Location: York
(31.8935°S, 116.7682°E)
Time: 19:27:14
(UTC+08:00)

Explorer 11/Cluster Stage 4 - Visible Passes

Search period start: 13 June 2021 00:00
Search period end: 23 June 2021 00:00
Orbit: 467 x 1257 km, 28.8° (Epoch: 12 June)

Date Brightness Start Highest point End Pass type
(mag) Time Alt. Az. Time Alt. Az. Time Alt. Az.
13 Jun 7.5 18:14:46 10° NW 18:19:07 34° NNE 18:23:11 15° E visible
13 Jun 7.8 20:01:56 10° WNW 20:05:18 39° WNW 20:05:18 39° WNW visible
14 Jun 7.4 18:03:46 10° NW 18:08:01 36° NNE 18:12:43 12° E visible
14 Jun 7.4 19:51:03 10° WNW 19:54:50 47° NW 19:54:50 47° NW visible
15 Jun 7.2 17:52:49 10° NW 17:56:58 39° NNE 18:02:04 10° E visible
15 Jun 7.0 19:40:11 10° WNW 19:44:22 56° NW 19:44:22 56° NW visible
16 Jun 7.0 17:41:53 10° NW 17:45:56 42° NNE 17:50:53 10° E visible
16 Jun 6.7 19:29:20 10° W 19:33:54 63° NNW 19:33:54 63° NNW visible
17 Jun 6.6 19:18:29 10° W 19:23:11 63° N 19:23:29 62° NNE visible
18 Jun 6.6 19:07:40 10° W 19:12:10 61° N 19:13:05 51° NE visible
19 Jun 6.6 18:56:51 10° W 19:01:10 57° N 19:02:44 39° NE visible
20 Jun 6.6 18:46:02 10° W 18:50:11 53° N 18:52:27 29° ENE visible
20 Jun 9.2 20:34:08 10° WNW 20:34:35 12° WNW 20:34:35 12° WNW visible
21 Jun 6.7 18:35:14 10° W 18:39:13 49° N 18:42:15 20° ENE visible
21 Jun 9.0 20:23:28 10° WNW 20:24:24 15° WNW 20:24:24 15° WNW visible
22 Jun 6.9 18:24:26 10° W 18:28:15 43° N 18:32:09 13° ENE visible
22 Jun 8.8 20:12:54 10° WNW 20:14:17 16° NW 20:14:17 16° NW visible
